Location: Newark
(30.0333°N, 31.2167°E)
Time: 21:38:23
(UTC+00:00)

Tiros 1 despin weight - Pass Details

Date: 21 January 2020
Orbit: 594 x 642 km, 48.2° (Epoch: 20 February)

Event Time Altitude Azimuth Distance (km) Brightness Sun altitude
Rises 17:05:47 0° 313° (NW) 2,935 ? -22.3°
Reaches altitude 10° 17:08:08 10° 316° (NW) 2,027 ? -22.8°
Enters shadow 17:12:32 67° 15° (NNE) 694 ? -23.7°
Maximum altitude 17:12:48 69° 40° (NE) 685 - -23.8°
Drops below altitude 10° 17:17:27 10° 124° (ESE) 2,021 - -24.8°
Sets 17:19:47 0° 126° (SE) 2,925 - -25.3°
